Mosby, MO

6:16 PM CST on December 07, 2019 (GMT -0600)
Clay County Regional

Weather History for KGPH - October, 2019

Change the Weather History Date:

Wednesday, October 9, 2019

  Actual Average (WUND) Record (WUND)
Temperature  
Mean Temperature 55 °F -  
Max Temperature 60 °F - - (-1)
Min Temperature 50 °F - - (-1)
Degree Days  
Heating Degree Days 10    
Growing Degree Days 5 (Base 50)    
Moisture  
Dew Point -11 °F    
Average Humidity 7    
Maximum Humidity 9    
Minimum Humidity 4    
Precipitation  
Precipitation 0.00 in - - ()
Sea Level Pressure  
Sea Level Pressure 29.95 in    
Wind  
Wind Speed 1 mph ()    
Max Wind Speed 10 mph    
Max Gust Speed 17 mph    
Visibility 10.0 miles    
Events Rain , Thunderstorm    
Averages and records for this station are not official NWS values.
T = Trace of Precipitation, MM = Missing Value Source: Averaged Metar Reports

Daily Weather History Graph

Daily Weather History Graph

Search for Another Location

Airport or City:

Astronomy

Oct. 09, 2019 Rise Set
Actual Time 7:20 AM CDT 6:47 PM CDT
Civil Twilight 6:54 AM CDT 7:14 PM CDT
Nautical Twilight 6:22 AM CDT 7:45 PM CDT
Astronomical Twilight 5:51 AM CDT 8:16 PM CDT
Moon 5:18 PM CDT (10/9) 3:10 AM CDT (10/9)
Length of Visible Light 12h 20m
Length of Day
11h 26m
Waxing Gibbous, 85% of the Moon is Illuminated
Oct 9
Waxing Gibbous
Oct 13
Full
Oct 21
Last Quarter
Oct 27
New
Nov 4
First Quarter

Hourly Weather History & Observations

Time (CDT) Temp. Dew Point Humidity Pressure Visibility Wind Dir Wind Speed Gust Speed Precip Events Conditions
12:15 AM 53.6 °F -14.8 °F 6% 30.02 in 10.0 mi Calm Calm - N/A   Clear
12:35 AM 53.6 °F -16.6 °F 5% 30.02 in 10.0 mi SSE 3.5 mph - N/A   Clear
1:15 AM 53.6 °F -18.4 °F 5% 30.01 in 10.0 mi Calm Calm - N/A   Clear
1:35 AM 53.6 °F -14.8 °F 6% 30.01 in 10.0 mi Calm Calm - N/A   Clear
1:55 AM 53.6 °F -16.6 °F 5% 30.01 in 10.0 mi Calm Calm - N/A   Clear
2:15 AM 51.8 °F -18.4 °F 5% 30.01 in 10.0 mi Calm Calm - N/A   Clear
2:35 AM 50.0 °F -14.8 °F 6% 30.01 in 10.0 mi Calm Calm - N/A   Unknown
2:55 AM 50.0 °F -13.0 °F 7% 30.01 in 10.0 mi Calm Calm - N/A   Clear
3:15 AM 51.8 °F -11.2 °F 7% 30.01 in 10.0 mi Calm Calm - N/A   Clear
3:35 AM 51.8 °F -14.8 °F 6% 30.01 in 10.0 mi Calm Calm - N/A   Clear
3:55 AM 50.0 °F -13.0 °F 7% 30.01 in 10.0 mi Calm Calm - N/A   Clear
4:15 AM 50.0 °F -14.8 °F 6% 30.00 in 10.0 mi Calm Calm - N/A   Clear
4:35 AM 50.0 °F -14.8 °F 6% 30.00 in 10.0 mi Calm Calm - N/A   Clear
5:15 AM 51.8 °F -13.0 °F 7% 29.98 in 10.0 mi Calm Calm - N/A   Unknown
5:35 AM 51.8 °F -13.0 °F 7% 29.98 in 10.0 mi Calm Calm - N/A   Clear
5:55 AM 51.8 °F -9.4 °F 8% 29.98 in 10.0 mi Calm Calm - N/A   Unknown
6:15 AM 50.0 °F -13.0 °F 7% 29.98 in 10.0 mi Calm Calm - N/A   Clear
6:35 AM 50.0 °F -13.0 °F 7% 29.98 in 10.0 mi Calm Calm - N/A   Clear
6:55 AM 50.0 °F -11.2 °F 8% 29.98 in 10.0 mi Calm Calm - N/A   Clear
7:15 AM 50.0 °F -11.2 °F 8% 29.99 in 10.0 mi Calm Calm - N/A   Clear
7:35 AM 50.0 °F -9.4 °F 8% 29.99 in 10.0 mi SE 3.5 mph - N/A   Unknown
7:55 AM 50.0 °F -13.0 °F 7% 29.99 in 10.0 mi Calm Calm - N/A   Clear
8:35 AM 51.8 °F -13.0 °F 7% 30.00 in 10.0 mi SE 4.6 mph - N/A   Clear
8:55 AM 51.8 °F -13.0 °F 7% 30.01 in 10.0 mi Calm Calm - N/A   Clear
9:15 AM 51.8 °F -13.0 °F 7% 30.01 in 10.0 mi Calm Calm - N/A   Clear
9:55 AM 51.8 °F -9.4 °F 8% 30.01 in 10.0 mi Calm Calm - N/A   Clear
10:15 AM 53.6 °F -14.8 °F 6% 30.01 in 10.0 mi Calm Calm - N/A   Clear
10:35 AM 53.6 °F -13.0 °F 6% 30.01 in 10.0 mi Calm Calm - N/A   Clear
10:55 AM 53.6 °F -14.8 °F 6% 30.00 in 10.0 mi Calm Calm - N/A   Clear
11:15 AM 55.4 °F -16.6 °F 5% 30.00 in 10.0 mi Calm Calm - N/A   Unknown
11:35 AM 55.4 °F -16.6 °F 5% 30.00 in 10.0 mi SSE 4.6 mph - N/A   Clear
11:55 AM 55.4 °F -18.4 °F 4% 29.99 in 10.0 mi SSE 5.8 mph - N/A   Clear
12:55 PM 55.4 °F -9.4 °F 7% 29.98 in 10.0 mi Calm Calm - N/A Rain Light Rain
1:15 PM 55.4 °F -9.4 °F 7% 29.98 in 10.0 mi SSE 6.9 mph - N/A   Drizzle
1:55 PM 55.4 °F -5.8 °F 8% 29.95 in 10.0 mi Calm Calm - N/A Rain Rain
2:35 PM 53.6 °F -7.6 °F 8% 29.94 in 10.0 mi Calm Calm - N/A Rain Light Rain
2:55 PM 55.4 °F -4.0 °F 9% 29.92 in 10.0 mi SSE 3.5 mph - N/A   Mostly Cloudy
3:35 PM 55.4 °F -4.0 °F 9% 29.90 in 10.0 mi SE 3.5 mph - N/A   Mostly Cloudy
4:15 PM 57.2 °F -5.8 °F 8% 29.89 in 10.0 mi SE 5.8 mph - N/A   Overcast
4:35 PM 57.2 °F -9.4 °F 6% 29.89 in 10.0 mi SE 8.1 mph - N/A   Mostly Cloudy
4:55 PM 59.0 °F -11.2 °F 5% 29.88 in 10.0 mi SE 10.4 mph 17.3 mph N/A   Scattered Clouds
5:15 PM 57.2 °F -7.6 °F 7% 29.89 in 10.0 mi SE 6.9 mph - N/A   Scattered Clouds
5:55 PM 55.4 °F -7.6 °F 7% 29.86 in 10.0 mi ESE 4.6 mph - N/A Rain Rain
6:15 PM 57.2 °F -5.8 °F 8% 29.86 in 10.0 mi Calm Calm - N/A   Mostly Cloudy
6:35 PM 55.4 °F -7.6 °F 7% 29.86 in 10.0 mi Calm Calm - N/A Rain , Thunderstorm Thunderstorms and Rain
6:55 PM 55.4 °F -7.6 °F 7% 29.86 in 10.0 mi Calm Calm - N/A   Scattered Clouds
7:35 PM 57.2 °F -5.8 °F 8% 29.86 in 10.0 mi Calm Calm - N/A   Overcast
7:55 PM 57.2 °F -4.0 °F 8% 29.86 in 10.0 mi Calm Calm - N/A   Overcast
8:15 PM 57.2 °F -4.0 °F 8% 29.86 in 10.0 mi Calm Calm - N/A   Overcast
9:15 PM 59.0 °F -5.8 °F 7% 29.86 in 10.0 mi Calm Calm - N/A   Mostly Cloudy
9:55 PM 60.8 °F -7.6 °F 6% 29.86 in 10.0 mi SE 5.8 mph - N/A   Overcast
10:15 PM 60.8 °F -5.8 °F 7% 29.87 in 10.0 mi SE 6.9 mph - N/A   Unknown
10:35 PM 60.8 °F -7.6 °F 6% 29.86 in 10.0 mi SSE 6.9 mph - N/A   Overcast
10:55 PM 60.8 °F -7.6 °F 6% 29.86 in 10.0 mi SE 6.9 mph - N/A   Mostly Cloudy
11:15 PM 60.8 °F -7.6 °F 6% 29.87 in 10.0 mi Calm Calm - N/A   Mostly Cloudy
11:35 PM 60.8 °F -7.6 °F 6% 29.87 in 10.0 mi Calm Calm - N/A   Overcast
11:55 PM 60.8 °F -5.8 °F 7% 29.88 in 10.0 mi Calm Calm - N/A   Mostly Cloudy